| time (UTC) | temp F | wind direction | speed knots | gust knots | rain 1hr in | rain 24hr in | rain mn in | humidity % | barometer mb |
| 20260506211516 | 46 | 5 | 0.9 | 5.2 | 0.02 | 0.78 | 0.73 | 93 | 1005.6 |
| 20260506210012 | 46 | 360 | 1.7 | 4.3 | 0.03 | 0.78 | 0.73 | 93 | 1005.6 |
| 20260506204507 | 46 | 36 | 0.9 | 4.3 | 0.07 | 0.78 | 0.72 | 93 | 1005.3 |
| 20260506203005 | 47 | 34 | 0.9 | 3.5 | 0.07 | 0.78 | 0.72 | 93 | 1005.4 |
| 20260506201503 | 47 | 29 | 1.7 | 5.2 | 0.08 | 0.77 | 0.71 | 93 | 1005.4 |
| 20260506200004 | 47 | 40 | 0.9 | 3.5 | 0.07 | 0.80 | 0.69 | 93 | 1005.4 |
| 20260506194600 | 47 | 32 | 1.7 | 5.2 | 0.03 | 0.76 | 0.65 | 92 | 1005.3 |
| 20260506193059 | 47 | 25 | 2.6 | 5.2 | 0.03 | 0.76 | 0.65 | 92 | 1005.6 |
| 20260506191559 | 47 | 69 | 2.6 | 7.8 | 0.01 | 0.74 | 0.63 | 92 | 1005.6 |
| 20260506190059 | 47 | 15 | 1.7 | 6.1 | 0.01 | 0.73 | 0.62 | 93 | 1005.4 |
| 20260506184612 | 47 | 46 | 1.7 | 6.1 | 0.02 | 0.73 | 0.62 | 93 | 1005.4 |
| 20260506183056 | 47 | 55 | 1.7 | 7.0 | 0.08 | 0.73 | 0.62 | 93 | 1005.6 |
| 20260506181555 | 47 | 29 | 2.6 | 7.8 | 0.12 | 0.73 | 0.62 | 93 | 1005.6 |
| 20260506180055 | 47 | 22 | 3.5 | 7.8 | 0.12 | 0.72 | 0.61 | 92 | 1005.8 |
| 20260506174550 | 47 | 30 | 2.6 | 4.3 | 0.14 | 0.71 | 0.60 | 92 | 1006.3 |
| 20260506173103 | 47 | 20 | 1.7 | 5.2 | 0.12 | 0.65 | 0.54 | 92 | 1006.0 |
| 20260506171551 | 47 | 69 | 2.6 | 4.3 | 0.09 | 0.61 | 0.50 | 92 | 1005.8 |
| 20260506170044 | 47 | 55 | 1.7 | 8.7 | 0.10 | 0.60 | 0.49 | 92 | 1005.7 |
| 20260506164553 | 48 | 25 | 2.6 | 9.6 | 0.09 | 0.56 | 0.46 | 92 | 1005.8 |
| 20260506163042 | 49 | 28 | 3.5 | 9.6 | 0.09 | 0.53 | 0.42 | 93 | 1005.5 |
| 20260506161536 | 49 | 56 | 2.6 | 10.4 | 0.10 | 0.52 | 0.41 | 92 | 1005.9 |
| 20260506160034 | 50 | 59 | 0.9 | 3.5 | 0.09 | 0.49 | 0.38 | 93 | 1005.7 |
| 20260506154531 | 49 | 65 | 1.7 | 4.3 | 0.09 | 0.48 | 0.37 | 92 | 1005.8 |
| 20260506153031 | 50 | 26 | 1.7 | 5.2 | 0.06 | 0.43 | 0.32 | 92 | 1006.0 |
| 20260506151527 | 50 | 51 | 0.0 | 5.2 | 0.06 | 0.42 | 0.31 | 93 | 1006.1 |
| 20260506150026 | 50 | 36 | 1.7 | 4.3 | 0.06 | 0.40 | 0.28 | 93 | 1006.1 |
| 20260506144530 | 50 | 55 | 1.7 | 4.3 | 0.08 | 0.39 | 0.28 | 93 | 1006.4 |
| 20260506143032 | 50 | 49 | 0.9 | 3.5 | 0.08 | 0.37 | 0.26 | 93 | 1006.4 |
| 20260506141522 | 50 | 80 | 0.0 | 5.2 | 0.09 | 0.36 | 0.25 | 93 | 1006.5 |
| 20260506140023 | 50 | 59 | 0.0 | 2.6 | 0.09 | 0.34 | 0.23 | 93 | 1006.3 |
| 20260506134520 | 50 | 14 | 0.9 | 4.3 | 0.09 | 0.31 | 0.20 | 92 | 1006.8 |
| 20260506133016 | 50 | 38 | 1.7 | 7.0 | 0.09 | 0.28 | 0.18 | 93 | 1006.5 |
| 20260506131518 | 50 | 355 | 0.9 | 3.5 | 0.08 | 0.27 | 0.16 | 93 | 1006.8 |
| 20260506130016 | 50 | 49 | 1.7 | 4.3 | 0.06 | 0.25 | 0.14 | 92 | 1006.9 |
| 20260506124511 | 50 | 49 | 1.7 | 4.3 | 0.03 | 0.22 | 0.11 | 92 | 1007.3 |
| 20260506123010 | 51 | 38 | 0.9 | 6.1 | 0.02 | 0.20 | 0.09 | 92 | 1007.2 |
| 20260506121507 | 51 | 30 | 2.6 | 4.3 | 0.01 | 0.19 | 0.08 | 92 | 1007.1 |
| 20260506120006 | 51 | 40 | 1.7 | 3.5 | 0.01 | 0.19 | 0.08 | 93 | 1007.5 |
| 20260506114505 | 51 | 72 | 0.9 | 3.5 | 0.01 | 0.19 | 0.08 | 93 | 1007.2 |
| 20260506113007 | 51 | 66 | 0.9 | 2.6 | 0.00 | 0.18 | 0.07 | 93 | 1007.1 |
| 20260506111502 | 52 | 45 | 0.0 | 1.7 | 0.00 | 0.18 | 0.07 | 93 | 1007.0 |
| 20260506110002 | 52 | 11 | 1.7 | 5.2 | 0.00 | 0.18 | 0.07 | 93 | 1007.0 |
| 20260506104601 | 52 | 44 | 2.6 | 5.2 | 0.00 | 0.18 | 0.07 | 93 | 1006.9 |
| 20260506103057 | 52 | 355 | 2.6 | 7.0 | 0.00 | 0.18 | 0.07 | 94 | 1006.9 |
| 20260506101555 | 52 | 54 | 1.7 | 5.2 | 0.00 | 0.18 | 0.07 | 94 | 1006.8 |
| 20260506100054 | 53 | 26 | 0.9 | 3.5 | 0.00 | 0.18 | 0.07 | 93 | 1007.1 |
| 20260506094551 | 53 | 22 | 1.7 | 3.5 | 0.00 | 0.18 | 0.07 | 93 | 1007.2 |
| 20260506093052 | 53 | 5 | 0.0 | 1.7 | 0.00 | 0.18 | 0.07 | 93 | 1007.3 |
| 20260506091549 | 53 | 5 | 0.0 | 1.7 | 0.00 | 0.18 | 0.07 | 93 | 1007.6 |
| 20260506090047 | 53 | 5 | 0.0 | 1.7 | 0.00 | 0.18 | 0.07 | 93 | 1007.4 |
| 20260506084546 | 53 | 303 | 0.9 | 4.3 | 0.00 | 0.18 | 0.07 | 93 | 1007.8 |
| 20260506083047 | 53 | 27 | 0.0 | 0.0 | 0.01 | 0.18 | 0.07 | 93 | 1007.7 |
| 20260506081549 | 53 | 26 | 0.0 | 2.6 | 0.01 | 0.18 | 0.07 | 93 | 1007.9 |
| 20260506073040 | 54 | 28 | 0.9 | 2.6 | 0.01 | 0.17 | 0.06 | 93 | 1007.2 |
| 20260506071547 | 54 | 342 | 0.9 | 3.5 | 0.01 | 0.17 | 0.06 | 92 | 1007.4 |
| 20260506061534 | 55 | 5 | 0.9 | 3.5 | 0.01 | 0.16 | 0.05 | 92 | 1007.5 |
| 20260506044525 | 56 | 312 | 0.9 | 3.5 | 0.04 | 0.12 | 0.01 | 90 | 1007.8 |
| 20260506043021 | 56 | 65 | 0.0 | 1.7 | 0.03 | 0.11 | 0.00 | 89 | 1007.9 |
| 20260506041521 | 56 | 48 | 1.7 | 4.3 | 0.05 | 0.11 | 0.00 | 90 | 1007.6 |
| 20260506040017 | 57 | 67 | 1.7 | 6.1 | 0.05 | 0.11 | 0.00 | 90 | 1008.0 |
| 20260506034514 | 57 | 264 | 0.0 | 2.6 | 0.02 | 0.08 | 0.08 | 89 | 1007.3 |
| 20260506033011 | 57 | 177 | 0.0 | 2.6 | 0.02 | 0.08 | 0.08 | 88 | 1006.8 |
| 20260506031609 | 57 | 242 | 1.7 | 3.5 | 0.00 | 0.06 | 0.06 | 86 | 1006.5 |
| 20260506030008 | 57 | 225 | 0.9 | 2.6 | 0.00 | 0.06 | 0.06 | 86 | 1006.3 |
| 20260506024507 | 58 | 225 | 0.9 | 3.5 | 0.00 | 0.06 | 0.06 | 85 | 1006.3 |
| 20260506023006 | 58 | 229 | 0.9 | 2.6 | 0.00 | 0.06 | 0.06 | 84 | 1006.4 |
| 20260506021506 | 59 | 229 | 0.0 | 1.7 | 0.00 | 0.06 | 0.06 | 83 | 1006.4 |
| 20260506020005 | 59 | 229 | 0.9 | 1.7 | 0.00 | 0.06 | 0.06 | 82 | 1006.4 |
| 20260506014502 | 60 | 229 | 0.9 | 4.3 | 0.00 | 0.06 | 0.06 | 81 | 1005.9 |
| 20260506013102 | 60 | 229 | 0.9 | 2.6 | 0.00 | 0.06 | 0.06 | 80 | 1005.5 |
| 20260506011601 | 61 | 248 | 1.7 | 2.6 | 0.00 | 0.06 | 0.06 | 80 | 1005.6 |
| 20260506004627 | 62 | 242 | 0.0 | 2.6 | 0.00 | 0.06 | 0.06 | 76 | 1005.1 |
| 20260506003059 | 62 | 242 | 0.0 | 4.3 | 0.00 | 0.06 | 0.06 | 74 | 1005.1 |
| 20260506001601 | 63 | 201 | 0.9 | 3.5 | 0.00 | 0.06 | 0.06 | 73 | 1005.1 |
| 20260506000057 | 64 | 189 | 0.0 | 2.6 | 0.00 | 0.06 | 0.06 | 74 | 1005.0 |
| 20260505234614 | 64 | 184 | 0.9 | 1.7 | 0.00 | 0.06 | 0.06 | 71 | 1004.9 |
| 20260505233056 | 65 | 185 | 0.0 | 2.6 | 0.00 | 0.06 | 0.06 | 68 | 1005.0 |
| 20260505231557 | 65 | 182 | 0.9 | 7.0 | 0.00 | 0.06 | 0.06 | 67 | 1004.6 |
| 20260505230056 | 65 | 242 | 0.9 | 3.5 | 0.00 | 0.06 | 0.06 | 65 | 1004.6 |
| 20260505224554 | 65 | 179 | 0.9 | 2.6 | 0.00 | 0.06 | 0.06 | 68 | 1004.7 |
| 20260505223102 | 66 | 182 | 1.7 | 4.3 | 0.00 | 0.06 | 0.06 | 67 | 1004.6 |
| 20260505221607 | 66 | 327 | 4.3 | 9.6 | 0.00 | 0.06 | 0.06 | 64 | 1003.8 |
| 20260505220130 | 67 | 190 | 3.5 | 8.7 | 0.00 | 0.06 | 0.06 | 63 | 1004.8 |
| 20260505214614 | 68 | 196 | 2.6 | 9.6 | 0.00 | 0.06 | 0.06 | 62 | 1004.3 |
| 20260505213053 | 67 | 142 | 0.9 | 5.2 | 0.00 | 0.06 | 0.06 | 64 | 1003.5 |